This is the latest recevied weather packets stored in our database for station/object JA7ZQY-10. If no packets are shown the sender has not sent any weather packets the latest 10 day(s).
| Time | Temp. | Humidity | Pressure | Rain* | Wind** | Luminosity | Snow |
|---|---|---|---|---|---|---|---|
| 1777558956 | 8.89° C | 57% | 1019.6 hPa | 0 mm | - | - | - |
| 1777558355 | 9.44° C | 56% | 1019.9 hPa | 0 mm | - | - | - |
| 1777557757 | 9.44° C | 56% | 1019.8 hPa | 0 mm | - | - | - |
| 1777557155 | 9.44° C | 60% | 1020.2 hPa | 0 mm | - | - | - |
| 1777556556 | 9.44° C | 61% | 1020.1 hPa | 0 mm | - | - | - |
| 1777555955 | 9.44° C | 58% | 1019.9 hPa | 0 mm | - | - | - |
| 1777555356 | 10° C | 53% | 1020.2 hPa | 0 mm | - | - | - |
| 1777554757 | 10° C | 55% | 1020.4 hPa | 0 mm | - | - | - |
| 1777554155 | 10.56° C | 59% | 1020.3 hPa | 0 mm | - | - | - |
| 1777553555 | 10.56° C | 58% | 1020.6 hPa | 0 mm | - | - | - |
| 1777552956 | 10.56° C | 57% | 1020.5 hPa | 0 mm | - | - | - |
| 1777552357 | 11.11° C | 56% | 1020.9 hPa | 0 mm | - | - | - |
| 1777551755 | 11.11° C | 54% | 1020.8 hPa | 0 mm | - | - | - |
| 1777551156 | 11.11° C | 53% | 1021 hPa | 0 mm | - | - | - |
| 1777550556 | 11.11° C | 53% | 1021.1 hPa | 0 mm | - | - | - |
| 1777549956 | 11.67° C | 52% | 1021.2 hPa | 0 mm | - | - | - |
| 1777549356 | 12.22° C | 52% | 1021.1 hPa | 0 mm | - | - | - |
| 1777548754 | 12.22° C | 49% | 1021 hPa | 0 mm | - | - | - |
| 1777548155 | 12.78° C | 50% | 1021.2 hPa | 0 mm | - | - | - |
| 1777547554 | 13.33° C | 57% | 1021.4 hPa | 0 mm | - | - | - |
| 1777546955 | 13.33° C | 53% | 1021.5 hPa | 0 mm | - | - | - |
| 1777546355 | 13.33° C | 53% | 1021.7 hPa | 0 mm | - | - | - |
| 1777545754 | 13.33° C | 54% | 1021.7 hPa | 0 mm | - | - | - |
| 1777545155 | 13.33° C | 54% | 1021.5 hPa | 0 mm | - | - | - |
| 1777544554 | 13.33° C | 54% | 1021.5 hPa | 0 mm | - | - | - |
* Rain latest hour (hover to see other rain measurements)
** Current wind speed in m/s (hover to see current wind gust speed)